Ibiza, Spain

11:16 AM CET on December 17, 2017 (GMT +0100)
Ibiza

Weather History for LEIB - January, 2013

Change the Weather History Date:

Sunday, January 6, 2013

  Actual Average Record
Temperature  
Mean Temperature 54 °F -  
Max Temperature 68 °F 57 °F 68 °F (2012)
Min Temperature 41 °F 45 °F 41 °F (2000)
Degree Days  
Heating Degree Days 10    
Growing Degree Days 4 (Base 50)    
Moisture  
Dew Point 46 °F    
Average Humidity 73    
Maximum Humidity 100    
Minimum Humidity 37    
Precipitation  
Precipitation 0.00 in 0.04 in - ()
Sea Level Pressure  
Sea Level Pressure 30.30 in    
Wind  
Wind Speed 1 mph ()    
Max Wind Speed 7 mph    
Max Gust Speed -    
Visibility 12.5 miles    
Events      
Averages and records for this station are not official NWS values.
T = Trace of Precipitation, MM = Missing Value Source: Averaged Metar Reports

Daily Weather History Graph

Daily Weather History Graph

Search for Another Location

Airport or City:

Trip Planner

Search our weather history database for the weather conditions in past years. The results will help you decide how hot, cold, wet, or windy it might be!

Date:

Astronomy

Jan. 06, 2013 Rise Set
Actual Time 8:13 AM CET 5:47 PM CET
Civil Twilight 7:43 AM CET 6:17 PM CET
Nautical Twilight 7:10 AM CET 6:50 PM CET
Astronomical Twilight 6:38 AM CET 7:22 PM CET
Moon 2:11 AM CET (1/6) 1:03 PM CET (1/6)
Length of Visible Light 10h 33m
Length of Day
9h 34m
Waning Crescent, 36% of the Moon is Illuminated
Jan 6
Waning Crescent
Jan 11
New
Jan 19
First Quarter
Jan 27
Full
Feb 3
Last Quarter

Hourly Weather History & Observations

Time (CET) Temp. Dew Point Humidity Pressure Visibility Wind Dir Wind Speed Gust Speed Precip Events Conditions
12:00 AM 44.6 °F 42.8 °F 93% 30.30 in - Variable 1.2 mph - N/A   Clear
1:00 AM 44 °F 41 °F 85% 30.32 in 6 mi North 1.2 mph - -  
1:00 AM 44.6 °F 42.8 °F 93% 30.30 in - Variable 1.2 mph - N/A   Clear
4:00 AM 46.4 °F 42.8 °F 87% 30.30 in - Variable 1.2 mph - N/A   Clear
5:30 AM 46.4 °F 42.8 °F 87% 30.27 in - Calm Calm - N/A   Clear
6:00 AM 44.6 °F 41.0 °F 87% 30.27 in - Calm Calm - N/A   Clear
6:30 AM 48.2 °F 41.0 °F 76% 30.27 in - Calm Calm - N/A   Clear
7:00 AM 51 °F 40 °F 56% 30.30 in 6 mi WNW 3.5 mph - -  
7:00 AM 53.6 °F 42.8 °F 67% 30.30 in - WNW 3.5 mph - N/A   Clear
7:30 AM 51.8 °F 41.0 °F 67% 30.30 in - Calm Calm - N/A   Clear
8:00 AM 53.6 °F 39.2 °F 58% 30.30 in - West 3.5 mph - N/A   Clear
8:30 AM 53.6 °F 39.2 °F 58% 30.30 in - Calm Calm - N/A   Clear
9:00 AM 55.4 °F 41.0 °F 58% 30.30 in - Calm Calm - N/A   Clear
9:30 AM 55.4 °F 42.8 °F 63% 30.30 in - Variable 1.2 mph - N/A   Clear
10:00 AM 59.0 °F 48.2 °F 67% 30.33 in - Calm Calm - N/A   Clear
11:00 AM 62.6 °F 48.2 °F 59% 30.33 in - Variable 2.3 mph - N/A   Clear
11:30 AM 64.4 °F 46.4 °F 52% 30.36 in - Variable 2.3 mph - N/A   Clear
12:00 PM 64.4 °F 44.6 °F 49% 30.33 in - Calm Calm - N/A   Clear
12:30 PM 66.2 °F 46.4 °F 49% 30.33 in - Calm Calm - N/A   Clear
1:00 PM 68 °F 47 °F 37% 30.33 in 19 mi Calm Calm - -  
1:00 PM 68.0 °F 46.4 °F 46% 30.33 in - Calm Calm - N/A   Clear
1:30 PM 64.4 °F 44.6 °F 49% 30.30 in - ENE 3.5 mph - N/A   Clear
2:00 PM 66.2 °F 44.6 °F 46% 30.30 in - Variable 1.2 mph - N/A   Clear
2:30 PM 64.4 °F 48.2 °F 56% 30.30 in - SSE 6.9 mph - N/A   Clear
3:00 PM 64.4 °F 48.2 °F 56% 30.30 in - SSE 5.8 mph - N/A   Clear
3:30 PM 64.4 °F 50.0 °F 59% 30.30 in - SSE 3.5 mph - N/A   Clear
4:00 PM 62.6 °F 50.0 °F 63% 30.30 in - SSE 4.6 mph - N/A   Clear
4:30 PM 62.6 °F 50.0 °F 63% 30.27 in - South 3.5 mph - N/A   Clear
5:00 PM 60.8 °F 48.2 °F 63% 30.27 in - Variable 1.2 mph - N/A   Clear
5:30 PM 59.0 °F 50.0 °F 72% 30.27 in - Variable 2.3 mph - N/A   Clear
6:00 PM 55.4 °F 51.8 °F 88% 30.27 in - Variable 1.2 mph - N/A   Clear
6:30 PM 51.8 °F 48.2 °F 88% 30.27 in - Calm Calm - N/A   Clear
7:00 PM 50 °F 46 °F 81% 30.31 in 19 mi NW 3.5 mph - -  
7:00 PM 50.0 °F 46.4 °F 87% 30.30 in - Variable 2.3 mph - N/A   Clear
7:30 PM 50.0 °F 46.4 °F 87% 30.30 in - Calm Calm - N/A   Clear
8:00 PM 48.2 °F 46.4 °F 93% 30.30 in - Variable 2.3 mph - N/A   Clear
8:30 PM 50.0 °F 48.2 °F 94% 30.30 in - Variable 1.2 mph - N/A   Clear
9:00 PM 50.0 °F 50.0 °F 100% 30.30 in - Variable 2.3 mph - N/A   Clear
9:30 PM 50.0 °F 50.0 °F 100% 30.30 in - Variable 2.3 mph - N/A   Clear
10:00 PM 50.0 °F 50.0 °F 100% 30.30 in - Calm Calm - N/A   Clear
10:30 PM 46.4 °F 46.4 °F 100% 30.30 in - Variable 1.2 mph - N/A   Clear
11:00 PM 46.4 °F 44.6 °F 93% 30.30 in - Calm Calm - N/A   Clear
11:30 PM 48.2 °F 48.2 °F 100% 30.30 in - Calm Calm - N/A   Clear